Vertical_Velocity
1 7 10 2 2 3 -2 9 7 2 -1 -0 0 3 -1 -1 -0 6 1 -0 4 -0 -3 -2 1 1 -1 -2 -0 -0 -0 -1 -1 -1 -1 -1 -2 -1 -2 -0 -3 -1 -3
1 0 -3 41 9 3 -3 -15 10 -17 0 2 5 1 1 -1 11 -1 -2 7 6 5 1 0 -2 2 -1 -2 -3 -1 -1 -0 -0 -1 0 1 -0 0 -1 -2 0 -1 -1
-1 4 1 -9 11 -15 -8 17 2 7 9 -10 10 2 4 -0 -1 -3 6 -1 4 -3 -2 5 0 1 -2 -3 -2 -2 1 -2 -1 -1 -1 -1 -1 -1 -1 -1 1 1 -0
-5 2 2 -4 -3 5 5 -16 -25 7 -22 4 2 5 3 4 -5 0 4 -3 2 -0 -2 2 -2 5 -1 -4 -4 -4 -1 1 -0 -1 0 -1 -1 -0 -1 -1 -1 -0 -0
-6 -2 1 0 1 -9 -2 -1 10 -19 -7 1 -4 -3 -9 -1 1 -0 3 3 -8 2 0 1 3 3 0 -6 -5 -3 -5 -3 -1 -0 1 -1 -1 -2 -1 -1 -2 -2 -2
0 3 -4 4 3 0 1 3 4 14 4 -2 -1 -4 4 -2 -1 3 10 7 8 14 3 -0 -3 3 3 1 -2 -4 -3 -4 -2 -3 -0 -0 0 -0 -0 -1 -3 -1 0
-2 -6 1 1 2 2 0 1 7 1 -5 15 -7 10 2 5 0 0 2 -2 1 -1 8 -4 -4 2 1 -2 -4 1 0 1 -2 -1 -2 1 -0 -0 -3 -1 5 2 -3
2 -1 -3 -3 2 6 4 13 1 3 16 -4 2 -7 0 2 -1 2 5 2 2 4 9 -3 8 -3 4 1 0 -1 -1 -4 -0 -2 -1 -1 -2 2 3 -2 -7 -0 4
3 2 1 -3 -0 2 5 -2 0 2 -4 8 5 -9 -0 -4 2 5 -6 -2 2 -0 -1 -1 -0 -1 -6 3 -0 -0 -0 2 0 1 1 -2 -6 -3 -0 0 -1 -2 2
3 6 -2 1 -2 0 -2 -2 2 4 1 -3 4 8 -6 -2 -2 1 -3 -6 -2 4 5 4 3 4 -1 -3 1 -1 -1 -1 -1 0 -5 0 -2 -3 -0 1 1 -2 -8
-1 7 4 1 -0 4 1 2 -0 -5 -7 3 -0 -10 6 2 8 -5 -5 -12 5 -2 4 1 -3 2 1 1 -1 1 2 0 -3 -0 -1 -0 -1 -2 -3 -3 1 -4 5
-5 -2 10 1 1 0 2 2 4 10 -4 0 2 0 2 -4 1 -3 5 6 1 2 2 -2 -2 0 1 0 -3 -1 1 -1 0 1 2 -1 2 1 -3 -5 5 1 -9
-3 7 1 3 -1 -1 1 2 2 3 -3 3 11 3 1 1 -0 1 -1 -1 -8 1 1 2 -1 -2 -1 4 -2 -0 1 -1 -2 -1 -2 2 -3 3 -4 -1 -1 -2 -3
2 4 -3 12 3 1 5 1 1 6 5 11 2 -1 1 3 -2 -5 -3 -4 -2 2 -3 2 -0 -1 4 0 -2 0 1 -2 -0 -4 4 0 -1 -3 -1 2 3 -5 -0
9 -1 -3 9 5 2 4 -4 0 -0 3 -1 -1 0 2 1 2 9 -3 3 2 -5 -6 -5 -4 8 1 1 -1 -0 1 -6 1 2 -2 -2 1 -6 -1 -1 1 -0 2
17 -4 -6 14 0 3 5 3 0 2 4 5 4 1 4 1 9 -8 -0 3 0 -2 0 -2 -5 1 -1 5 8 -5 1 -4 -1 0 1 1 -4 -2 -3 2 -2 -0 -7
8 0 -3 9 3 1 -2 4 1 1 11 5 2 2 9 -2 17 3 -4 -1 3 2 -5 0 1 2 5 -2 -0 1 -4 1 -1 1 3 -4 -5 1 -1 -1 -7 -3 -0
14 -5 -1 9 5 6 1 5 3 -6 7 0 1 12 -10 8 4 -3 2 2 1 2 2 -1 -0 -1 1 3 -4 2 2 -1 1 4 -2 -2 2 0 1 -9 -1 -0 -1
1 4 7 2 4 3 -1 1 3 11 4 2 7 -4 9 2 -1 -5 -3 -0 -2 4 -0 0 0 -2 1 -5 0 -1 4 -2 -3 3 -5 -1 0 2 -4 -1 -1 -2 2
-2 4 -0 2 -5 3 1 3 1 3 10 6 3 1 1 -6 -0 0 -1 -2 -0 7 -3 -1 -5 1 -2 -0 1 5 2 -6 -3 -4 2 2 2 -6 -1 -2 -1 3 -0
8 7 -1 2 1 3 3 -4 2 -1 3 -5 5 -2 -9 -2 -2 -0 6 -4 -3 0 1 -1 -3 0 -3 2 -6 5 -4 -6 -2 5 -1 -0 0 -2 -3 2 2 2 -3
3 9 14 4 3 2 3 4 -4 -3 -0 3 0 1 -2 -0 -1 2 1 5 -2 4 2 -1 1 -4 -3 0 -4 -6 -1 -7 2 -7 2 8 -4 -3 -8 9 5 0 -1
1 -1 6 1 -0 4 3 4 2 -4 0 -2 -1 -4 -2 -1 1 -2 -0 7 2 -0 4 3 -4 0 -5 -5 -0 -0 -5 -1 -5 2 1 -5 -6 -1 2 -3 3 -0 -1
10 9 -3 10 -15 6 3 2 0 3 -1 2 1 2 1 -0 1 3 -1 -2 1 2 -4 -2 0 -3 1 -1 -3 -5 -0 -0 -2 -5 -2 -7 -2 -3 -1 3 2 -4 -2
3 2 0 3 4 -1 0 2 3 0 -1 -2 1 0 -1 -2 -0 -2 -2 -1 0 -5 -2 1 0 -0 1 -2 -4 0 4 -10 -7 1 1 -2 -2 -10 1 2 -2 2 4
-4 1 -0 1 0 1 8 4 1 -2 -2 -2 -0 -0 0 4 -1 -3 -2 2 -6 2 1 -0 -1 -0 -0 -2 -1 -3 -6 -4 1 2 -1 -9 -3 2 -18 -5 -5 0 -6
Height
1500 1502 1504 1503 1507 1510 1514 1514 1516 1517 1520 1524 1527 1530 1534 1537 1539 1538 1539 1541 1542 1542 1543 1545 1546 1547 1547 1547 1548 1549 1549 1550 1550 1550 1550 1550 1551 1551 1551 1551 1550 1550 1549
1495 1497 1499 1495 1495 1505 1508 1514 1514 1513 1519 1524 1526 1528 1532 1536 1534 1534 1537 1540 1540 1541 1543 1545 1546 1547 1547 1547 1548 1549 1549 1550 1550 1550 1550 1551 1551 1551 1551 1551 1550 1549 1548
1490 1492 1493 1497 1499 1496 1502 1501 1508 1508 1517 1522 1526 1525 1528 1529 1533 1534 1535 1538 1539 1541 1543 1544 1546 1546 1546 1546 1548 1549 1549 1549 1550 1550 1550 1550 1550 1551 1550 1550 1549 1548 1547
1485 1487 1488 1491 1495 1498 1498 1497 1498 1497 1515 1520 1523 1523 1526 1526 1530 1534 1534 1534 1536 1540 1541 1543 1545 1546 1546 1546 1548 1548 1549 1549 1549 1549 1550 1550 1550 1550 1549 1549 1548 1547 1545
1481 1482 1483 1487 1491 1495 1497 1496 1495 1496 1514 1518 1514 1519 1522 1525 1529 1535 1536 1535 1537 1537 1540 1541 1544 1545 1544 1545 1546 1547 1548 1548 1549 1549 1549 1548 1548 1548 1548 1547 1546 1545 1544
1477 1478 1479 1482 1485 1490 1492 1492 1495 1501 1502 1507 1509 1518 1520 1525 1529 1534 1534 1535 1537 1538 1538 1540 1542 1544 1544 1543 1544 1545 1546 1547 1548 1548 1548 1547 1547 1547 1546 1545 1544 1543 1541
1471 1472 1473 1476 1480 1481 1484 1488 1490 1495 1498 1497 1505 1512 1519 1525 1528 1530 1532 1534 1535 1536 1537 1538 1540 1542 1541 1540 1542 1544 1545 1546 1546 1547 1547 1546 1546 1545 1544 1543 1542 1540 1539
1465 1466 1467 1469 1472 1475 1478 1479 1484 1489 1492 1494 1498 1502 1513 1522 1524 1528 1531 1533 1535 1535 1535 1536 1539 1538 1541 1540 1540 1542 1543 1544 1544 1543 1543 1543 1543 1543 1541 1540 1539 1539 1536
1459 1460 1461 1463 1467 1470 1472 1476 1479 1482 1486 1491 1496 1498 1506 1515 1521 1521 1527 1532 1533 1533 1532 1533 1534 1534 1537 1539 1538 1540 1541 1542 1542 1541 1541 1540 1539 1540 1539 1537 1535 1535 1534
1451 1453 1456 1458 1461 1466 1468 1473 1476 1480 1483 1487 1492 1498 1502 1507 1510 1516 1521 1525 1531 1531 1530 1530 1531 1531 1532 1535 1537 1538 1538 1538 1539 1540 1539 1537 1535 1536 1536 1534 1532 1531 1530
1445 1447 1451 1454 1456 1460 1464 1467 1472 1477 1480 1485 1489 1495 1501 1504 1506 1506 1511 1518 1524 1526 1526 1525 1527 1529 1529 1531 1532 1535 1536 1535 1536 1536 1535 1533 1532 1531 1531 1531 1529 1527 1524
1439 1441 1445 1448 1451 1455 1459 1463 1467 1471 1476 1484 1489 1494 1497 1500 1503 1504 1506 1510 1516 1520 1520 1521 1523 1526 1527 1527 1528 1531 1533 1532 1532 1533 1531 1530 1528 1527 1526 1527 1525 1524 1520
1432 1434 1438 1442 1446 1449 1453 1457 1462 1468 1473 1479 1484 1489 1493 1498 1500 1501 1504 1507 1513 1515 1516 1519 1520 1522 1523 1523 1525 1528 1528 1529 1528 1529 1528 1526 1524 1523 1522 1522 1520 1519 1517
1426 1429 1433 1437 1441 1445 1450 1453 1459 1464 1469 1473 1479 1484 1490 1494 1497 1499 1502 1504 1510 1510 1512 1515 1516 1519 1520 1520 1521 1525 1523 1525 1525 1525 1524 1521 1520 1519 1519 1518 1516 1515 1513
1419 1423 1427 1432 1436 1441 1445 1449 1455 1460 1466 1472 1477 1482 1485 1489 1493 1495 1499 1503 1503 1506 1509 1514 1514 1515 1515 1516 1518 1520 1521 1521 1521 1520 1518 1517 1515 1515 1515 1514 1513 1510 1509
1412 1415 1422 1427 1432 1437 1442 1446 1452 1457 1464 1468 1472 1477 1482 1487 1489 1494 1497 1501 1501 1504 1507 1508 1510 1511 1512 1514 1515 1516 1517 1518 1517 1516 1514 1511 1512 1511 1511 1509 1508 1507 1505
1406 1411 1417 1423 1427 1432 1437 1443 1448 1454 1459 1464 1469 1473 1478 1483 1486 1490 1495 1498 1500 1501 1504 1506 1508 1508 1508 1510 1513 1514 1514 1515 1512 1513 1509 1508 1508 1506 1505 1505 1503 1501 1499
1399 1407 1413 1419 1423 1428 1435 1441 1446 1453 1455 1461 1466 1469 1475 1481 1483 1487 1491 1495 1497 1499 1500 1503 1505 1505 1506 1506 1512 1511 1510 1510 1510 1508 1505 1506 1504 1502 1501 1498 1497 1495 1493
1397 1403 1409 1415 1421 1426 1433 1440 1444 1448 1453 1458 1463 1468 1474 1478 1480 1486 1488 1491 1494 1495 1497 1499 1501 1503 1504 1506 1511 1508 1504 1505 1507 1506 1503 1502 1499 1498 1496 1493 1492 1489 1488
1396 1402 1407 1413 1420 1426 1433 1438 1443 1447 1452 1457 1462 1467 1471 1475 1480 1482 1484 1488 1492 1492 1493 1496 1499 1501 1503 1506 1508 1506 1500 1502 1507 1501 1498 1497 1495 1493 1492 1489 1487 1483 1481
1395 1399 1406 1413 1419 1427 1431 1437 1443 1448 1452 1457 1462 1466 1470 1474 1478 1481 1483 1486 1490 1492 1492 1494 1497 1500 1501 1503 1504 1504 1499 1502 1502 1498 1495 1493 1491 1489 1488 1485 1482 1476 1474
1397 1401 1404 1413 1419 1426 1431 1438 1443 1449 1454 1458 1462 1465 1470 1475 1478 1481 1484 1486 1489 1492 1492 1494 1493 1496 1499 1499 1501 1500 1500 1498 1498 1495 1491 1489 1486 1486 1485 1482 1476 1472 1468
1400 1403 1408 1415 1421 1427 1434 1439 1446 1451 1455 1459 1463 1467 1471 1475 1478 1481 1485 1488 1489 1491 1493 1493 1493 1495 1496 1497 1497 1497 1496 1495 1495 1493 1488 1484 1484 1484 1481 1477 1472 1467 1464
1406 1409 1413 1419 1424 1431 1437 1442 1447 1451 1455 1461 1465 1469 1472 1476 1480 1484 1487 1489 1490 1492 1493 1495 1494 1493 1494 1494 1494 1495 1495 1490 1490 1490 1485 1480 1481 1479 1475 1471 1465 1463 1461
1412 1415 1420 1425 1430 1434 1441 1445 1449 1453 1457 1463 1468 1471 1475 1479 1482 1486 1488 1490 1491 1493 1494 1494 1493 1494 1493 1493 1493 1493 1489 1486 1490 1488 1482 1477 1477 1471 1468 1463 1461 1460 1457
1418 1421 1426 1430 1436 1440 1446 1450 1453 1457 1460 1465 1470 1474 1478 1481 1484 1487 1489 1492 1493 1492 1491 1492 1493 1492 1492 1492 1491 1488 1487 1487 1485 1483 1477 1475 1474 1468 1460 1458 1457 1455 1451